Simultaneous Nadir Overpasses (SNOs) Predictions

Prediction of SNOs between LANDSAT-8 and NOAA-19 Satellite Orbit:

Table of predicted SNOs for the next 14.0 days since TLE Epoch: 2/10/2024
Index Date (LANDSAT-8) Time (LANDSAT-8) Lat,Lon (LANDSAT-8) SZA (LANDSAT-8 ) Date (NOAA-19) Time (NOAA-19) Lat,Lon (NOAA-19) SZA (NOAA-19 ) Distance(km) Time Diff (sec)
1 02/10/2024 07:50:15 -80.85, -81.66 83.35 02/10/2024 07:50:04 -80.85, -81.56 83.34 1.79 11
2 02/12/2024 14:13:25 -80.85,-177.44 84.09 02/12/2024 14:13:12 -80.84,-177.47 84.10 0.90 13
3 02/14/2024 20:36:35 -80.84, 86.60 84.87 02/14/2024 20:36:20 -80.83, 86.52 84.88 1.50 15
4 02/17/2024 02:59:44 -80.84, -9.17 85.64 02/17/2024 02:59:27 -80.83, -9.21 85.65 0.74 17
5 02/17/2024 03:48:56 81.19, 163.48 95.08 02/17/2024 03:50:09 80.96, 164.28 95.00 29.57 73
6 02/19/2024 09:22:53 -80.83,-105.11 86.45 02/19/2024 09:22:34 -80.83,-105.02 86.45 1.73 19
7 02/19/2024 10:12:18 80.85, 62.88 93.59 02/19/2024 10:13:32 80.85, 62.73 93.60 2.76 74
8 02/21/2024 15:46:01 -80.83, 159.13 87.26 02/21/2024 15:45:41 -80.83, 159.08 87.27 0.79 20
9 02/21/2024 16:35:26 80.85, -32.90 92.79 02/21/2024 16:36:39 80.85, -32.97 92.80 1.49 73
10 02/23/2024 22:09:08 -80.82, 63.20 88.10 02/23/2024 22:08:47 -80.82, 63.10 88.11 1.75 21



Historial Predications of SNOs between LANDSAT-8 and NOAA-19
